| time (UTC) | temp F | wind direction | speed MPH | gust MPH | rain 1hr in | rain 24hr in | rain mn in | humidity % | barometer mb |
| 20260510234003 | 35 | 0 | 0.0 | 2.0 | 0.00 | 0.24 | 0.00 | 98 | 1005.0 |
| 20260510233003 | 35 | 0 | 0.0 | 0.0 | 0.00 | 0.24 | 0.00 | 98 | 1004.8 |
| 20260510232003 | 35 | 0 | 0.0 | 0.0 | 0.00 | 0.24 | 0.00 | 97 | 1005.1 |
| 20260510231003 | 36 | 0 | 0.0 | 0.0 | 0.00 | 0.24 | 0.00 | 97 | 1004.8 |
| 20260510230003 | 36 | 0 | 0.0 | 0.0 | 0.00 | 0.24 | 0.00 | 97 | 1005.0 |
| 20260510225003 | 37 | 0 | 0.0 | 0.0 | 0.00 | 0.24 | 0.00 | 96 | 1005.2 |
| 20260510224003 | 37 | 0 | 0.0 | 0.0 | 0.00 | 0.24 | 0.00 | 96 | 1004.9 |
| 20260510223003 | 37 | 0 | 0.0 | 0.0 | 0.00 | 0.24 | 0.00 | 96 | 1005.0 |
| 20260510222003 | 37 | 0 | 0.0 | 0.0 | 0.00 | 0.24 | 0.00 | 96 | 1005.2 |
| 20260510221003 | 37 | 0 | 0.0 | 0.0 | 0.00 | 0.24 | 0.00 | 96 | 1005.3 |
| 20260510220022 | 37 | 0 | 0.0 | 0.0 | 0.00 | 0.24 | 0.00 | 96 | 1005.2 |
| 20260510215003 | 37 | 0 | 0.0 | 0.0 | 0.00 | 0.24 | 0.24 | 95 | 1005.3 |
| 20260510214003 | 37 | 0 | 0.0 | 0.0 | 0.00 | 0.24 | 0.24 | 95 | 1005.3 |
| 20260510213003 | 37 | 0 | 0.0 | 2.0 | 0.00 | 0.24 | 0.24 | 94 | 1005.5 |
| 20260510212003 | 38 | 0 | 0.0 | 2.0 | 0.01 | 0.24 | 0.24 | 93 | 1005.6 |
| 20260510211003 | 38 | 0 | 0.0 | 2.0 | 0.01 | 0.24 | 0.24 | 93 | 1005.7 |
| 20260510210004 | 38 | 217 | 1.0 | 4.0 | 0.01 | 0.24 | 0.24 | 92 | 1005.7 |
| 20260510205003 | 39 | 182 | 1.0 | 2.0 | 0.02 | 0.24 | 0.24 | 92 | 1005.7 |
| 20260510204003 | 39 | 0 | 0.0 | 2.0 | 0.02 | 0.24 | 0.24 | 91 | 1005.8 |
| 20260510203003 | 40 | 133 | 1.0 | 2.0 | 0.04 | 0.24 | 0.24 | 88 | 1005.7 |
| 20260510202003 | 40 | 0 | 0.0 | 2.0 | 0.02 | 0.22 | 0.22 | 90 | 1005.9 |
| 20260510201003 | 40 | 0 | 0.0 | 0.0 | 0.04 | 0.22 | 0.22 | 87 | 1006.1 |
| 20260510200003 | 41 | 0 | 0.0 | 0.0 | 0.04 | 0.22 | 0.22 | 85 | 1005.9 |
| 20260510195003 | 41 | 0 | 0.0 | 6.0 | 0.04 | 0.21 | 0.21 | 80 | 1005.9 |
| 20260510194003 | 42 | 86 | 4.0 | 6.0 | 0.04 | 0.21 | 0.21 | 79 | 1006.1 |
| 20260510193003 | 42 | 94 | 2.0 | 4.0 | 0.02 | 0.20 | 0.20 | 84 | 1006.2 |
| 20260510192003 | 42 | 0 | 0.0 | 2.0 | 0.02 | 0.20 | 0.20 | 86 | 1006.2 |
| 20260510191003 | 43 | 161 | 2.0 | 2.0 | 0.01 | 0.19 | 0.19 | 81 | 1005.8 |
| 20260510190003 | 44 | 201 | 1.0 | 4.0 | 0.01 | 0.19 | 0.19 | 78 | 1005.7 |
| 20260510185003 | 44 | 61 | 3.0 | 4.0 | 0.00 | 0.18 | 0.18 | 74 | 1005.8 |
| 20260510184003 | 44 | 0 | 0.0 | 2.0 | 0.00 | 0.18 | 0.18 | 76 | 1005.7 |
| 20260510183003 | 44 | 0 | 0.0 | 2.0 | 0.00 | 0.18 | 0.18 | 77 | 1005.8 |
| 20260510182003 | 44 | 233 | 2.0 | 4.0 | 0.00 | 0.18 | 0.18 | 74 | 1006.1 |
| 20260510181003 | 45 | 0 | 0.0 | 2.0 | 0.00 | 0.18 | 0.18 | 76 | 1005.8 |
| 20260510180004 | 45 | 0 | 0.0 | 2.0 | 0.00 | 0.18 | 0.18 | 74 | 1005.9 |
| 20260510175003 | 46 | 225 | 1.0 | 4.0 | 0.00 | 0.18 | 0.18 | 72 | 1005.9 |
| 20260510174003 | 46 | 226 | 1.0 | 4.0 | 0.00 | 0.18 | 0.18 | 71 | 1005.8 |
| 20260510173003 | 47 | 233 | 1.0 | 2.0 | 0.00 | 0.18 | 0.18 | 70 | 1006.0 |
| 20260510172003 | 47 | 0 | 0.0 | 2.0 | 0.00 | 0.18 | 0.18 | 72 | 1005.9 |
| 20260510171003 | 47 | 272 | 1.0 | 4.0 | 0.00 | 0.18 | 0.18 | 69 | 1006.1 |
| 20260510170003 | 47 | 271 | 2.0 | 4.0 | 0.00 | 0.18 | 0.18 | 66 | 1006.2 |
| 20260510165003 | 47 | 251 | 1.0 | 4.0 | 0.00 | 0.18 | 0.18 | 68 | 1006.2 |
| 20260510164003 | 48 | 283 | 2.0 | 4.0 | 0.00 | 0.18 | 0.18 | 63 | 1006.5 |
| 20260510163003 | 48 | 0 | 0.0 | 4.0 | 0.00 | 0.18 | 0.18 | 66 | 1006.7 |
| 20260510162003 | 48 | 268 | 2.0 | 7.0 | 0.00 | 0.18 | 0.18 | 56 | 1006.7 |
| 20260510161003 | 46 | 307 | 4.0 | 11.0 | 0.01 | 0.18 | 0.18 | 66 | 1007.0 |
| 20260510160003 | 44 | 343 | 4.0 | 8.0 | 0.02 | 0.18 | 0.18 | 72 | 1007.0 |
| 20260510155003 | 43 | 0 | 0.0 | 4.0 | 0.02 | 0.18 | 0.18 | 84 | 1007.3 |
| 20260510154003 | 43 | 236 | 2.0 | 4.0 | 0.02 | 0.18 | 0.18 | 85 | 1007.3 |
| 20260510153003 | 43 | 0 | 0.0 | 4.0 | 0.02 | 0.18 | 0.18 | 84 | 1007.6 |
| 20260510152003 | 44 | 0 | 0.0 | 4.0 | 0.02 | 0.18 | 0.18 | 83 | 1007.5 |
| 20260510151003 | 44 | 67 | 2.0 | 9.0 | 0.01 | 0.17 | 0.17 | 78 | 1007.6 |
| 20260510150003 | 46 | 70 | 5.0 | 9.0 | 0.00 | 0.15 | 0.15 | 73 | 1007.7 |
| 20260510145003 | 50 | 208 | 2.0 | 4.0 | 0.00 | 0.15 | 0.15 | 62 | 1007.9 |
| 20260510144003 | 49 | 120 | 2.0 | 4.0 | 0.00 | 0.15 | 0.15 | 63 | 1008.0 |
| 20260510143003 | 54 | 228 | 1.0 | 4.0 | 0.00 | 0.15 | 0.15 | 59 | 1008.1 |
| 20260510142003 | 50 | 234 | 2.0 | 4.0 | 0.00 | 0.15 | 0.15 | 64 | 1008.1 |
| 20260510141003 | 50 | 0 | 0.0 | 6.0 | 0.00 | 0.15 | 0.15 | 64 | 1008.2 |
| 20260510140003 | 50 | 233 | 2.0 | 6.0 | 0.00 | 0.15 | 0.15 | 65 | 1008.3 |
| 20260510135003 | 49 | 0 | 0.0 | 4.0 | 0.00 | 0.15 | 0.15 | 64 | 1008.4 |
| 20260510134003 | 51 | 0 | 0.0 | 4.0 | 0.00 | 0.15 | 0.15 | 66 | 1008.6 |
| 20260510133003 | 49 | 219 | 1.0 | 4.0 | 0.00 | 0.15 | 0.15 | 67 | 1008.7 |
| 20260510132003 | 51 | 225 | 2.0 | 4.0 | 0.00 | 0.15 | 0.15 | 63 | 1008.8 |
| 20260510131003 | 49 | 248 | 2.0 | 4.0 | 0.00 | 0.15 | 0.15 | 68 | 1008.9 |
| 20260510130003 | 49 | 249 | 2.0 | 4.0 | 0.00 | 0.15 | 0.15 | 67 | 1008.8 |
| 20260510125003 | 51 | 249 | 1.0 | 4.0 | 0.00 | 0.15 | 0.15 | 69 | 1008.9 |
| 20260510124003 | 50 | 0 | 0.0 | 4.0 | 0.00 | 0.15 | 0.15 | 69 | 1009.3 |
| 20260510123003 | 50 | 250 | 2.0 | 7.0 | 0.00 | 0.15 | 0.15 | 69 | 1009.3 |
| 20260510122003 | 49 | 247 | 2.0 | 4.0 | 0.00 | 0.15 | 0.15 | 69 | 1009.7 |
| 20260510121003 | 49 | 237 | 2.0 | 6.0 | 0.00 | 0.15 | 0.15 | 73 | 1010.0 |
| 20260510120003 | 46 | 241 | 2.0 | 6.0 | 0.00 | 0.15 | 0.15 | 76 | 1010.1 |
| 20260510115003 | 47 | 231 | 1.0 | 4.0 | 0.00 | 0.15 | 0.15 | 74 | 1010.3 |
| 20260510114003 | 49 | 266 | 2.0 | 6.0 | 0.00 | 0.15 | 0.15 | 72 | 1010.3 |
| 20260510113003 | 48 | 335 | 2.0 | 4.0 | 0.00 | 0.15 | 0.15 | 74 | 1010.7 |
| 20260510112003 | 47 | 275 | 2.0 | 4.0 | 0.00 | 0.15 | 0.15 | 76 | 1010.9 |
| 20260510111003 | 46 | 294 | 1.0 | 4.0 | 0.00 | 0.15 | 0.15 | 75 | 1010.9 |
| 20260510110004 | 46 | 241 | 2.0 | 4.0 | 0.00 | 0.15 | 0.15 | 79 | 1011.0 |
| 20260510105003 | 46 | 252 | 1.0 | 6.0 | 0.00 | 0.15 | 0.15 | 81 | 1011.0 |
| 20260510104003 | 46 | 221 | 1.0 | 2.0 | 0.00 | 0.15 | 0.15 | 84 | 1011.2 |
| 20260510103004 | 44 | 0 | 0.0 | 4.0 | 0.00 | 0.15 | 0.15 | 83 | 1011.4 |
| 20260510102003 | 44 | 247 | 1.0 | 4.0 | 0.00 | 0.15 | 0.15 | 87 | 1011.7 |
| 20260510101003 | 43 | 0 | 0.0 | 2.0 | 0.00 | 0.15 | 0.15 | 89 | 1011.6 |
| 20260510100003 | 41 | 242 | 2.0 | 2.0 | 0.00 | 0.15 | 0.15 | 91 | 1012.0 |
| 20260510095003 | 41 | 235 | 2.0 | 2.0 | 0.00 | 0.15 | 0.15 | 93 | 1011.9 |
| 20260510094003 | 41 | 176 | 2.0 | 2.0 | 0.01 | 0.15 | 0.15 | 93 | 1012.2 |
| 20260510093003 | 40 | 192 | 2.0 | 2.0 | 0.01 | 0.15 | 0.15 | 91 | 1012.0 |
| 20260510092003 | 40 | 0 | 0.0 | 4.0 | 0.02 | 0.15 | 0.15 | 94 | 1012.4 |
| 20260510091003 | 40 | 0 | 0.0 | 4.0 | 0.02 | 0.15 | 0.15 | 95 | 1012.4 |
| 20260510090003 | 40 | 155 | 1.0 | 4.0 | 0.02 | 0.15 | 0.15 | 94 | 1012.6 |
| 20260510085003 | 40 | 82 | 2.0 | 2.0 | 0.04 | 0.15 | 0.15 | 95 | 1012.6 |
| 20260510084003 | 39 | 0 | 0.0 | 4.0 | 0.02 | 0.14 | 0.14 | 95 | 1012.8 |
| 20260510083003 | 40 | 0 | 0.0 | 2.0 | 0.02 | 0.14 | 0.14 | 95 | 1012.9 |
| 20260510082003 | 39 | 81 | 1.0 | 4.0 | 0.01 | 0.13 | 0.13 | 94 | 1012.8 |
| 20260510081003 | 39 | 66 | 2.0 | 4.0 | 0.01 | 0.13 | 0.13 | 94 | 1012.8 |
| 20260510080003 | 40 | 69 | 2.0 | 4.0 | 0.02 | 0.13 | 0.13 | 95 | 1013.1 |
| 20260510075003 | 39 | 75 | 2.0 | 4.0 | 0.01 | 0.12 | 0.12 | 94 | 1013.1 |
| 20260510074003 | 39 | 63 | 2.0 | 4.0 | 0.02 | 0.12 | 0.12 | 94 | 1013.0 |
| 20260510073003 | 39 | 80 | 3.0 | 4.0 | 0.02 | 0.12 | 0.12 | 93 | 1013.3 |
| 20260510072003 | 39 | 77 | 2.0 | 4.0 | 0.04 | 0.12 | 0.12 | 94 | 1013.2 |
| 20260510071003 | 39 | 0 | 0.0 | 4.0 | 0.04 | 0.12 | 0.12 | 94 | 1013.4 |
| 20260510070004 | 39 | 73 | 2.0 | 4.0 | 0.02 | 0.11 | 0.11 | 94 | 1013.6 |
| 20260510065003 | 39 | 51 | 2.0 | 4.0 | 0.04 | 0.11 | 0.11 | 94 | 1013.5 |
| 20260510064003 | 40 | 80 | 1.0 | 4.0 | 0.02 | 0.09 | 0.09 | 95 | 1013.6 |
| 20260510063003 | 40 | 0 | 0.0 | 2.0 | 0.02 | 0.09 | 0.09 | 93 | 1013.4 |
| 20260510062003 | 40 | 0 | 0.0 | 2.0 | 0.01 | 0.08 | 0.08 | 93 | 1013.7 |
| 20260510061003 | 40 | 0 | 0.0 | 4.0 | 0.01 | 0.08 | 0.08 | 93 | 1013.7 |
| 20260510060004 | 40 | 77 | 2.0 | 4.0 | 0.02 | 0.08 | 0.08 | 93 | 1013.7 |
| 20260510055003 | 40 | 0 | 0.0 | 2.0 | 0.01 | 0.07 | 0.07 | 95 | 1013.8 |
| 20260510054003 | 40 | 87 | 2.0 | 2.0 | 0.01 | 0.07 | 0.07 | 95 | 1013.9 |
| 20260510053003 | 40 | 0 | 0.0 | 4.0 | 0.01 | 0.07 | 0.07 | 95 | 1013.9 |
| 20260510052003 | 39 | 88 | 2.0 | 4.0 | 0.02 | 0.07 | 0.07 | 95 | 1014.1 |
| 20260510051003 | 40 | 0 | 0.0 | 2.0 | 0.02 | 0.07 | 0.07 | 96 | 1014.1 |
| 20260510050003 | 40 | 0 | 0.0 | 2.0 | 0.02 | 0.06 | 0.06 | 96 | 1014.0 |
| 20260510045003 | 39 | 0 | 0.0 | 2.0 | 0.04 | 0.06 | 0.06 | 96 | 1014.3 |
| 20260510044003 | 39 | 0 | 0.0 | 2.0 | 0.04 | 0.06 | 0.06 | 97 | 1014.4 |
| 20260510043003 | 40 | 0 | 0.0 | 2.0 | 0.05 | 0.06 | 0.06 | 97 | 1014.5 |
| 20260510042003 | 40 | 0 | 0.0 | 2.0 | 0.04 | 0.05 | 0.05 | 96 | 1014.5 |
| 20260510041003 | 40 | 0 | 0.0 | 0.0 | 0.04 | 0.05 | 0.05 | 96 | 1014.5 |
| 20260510040003 | 40 | 0 | 0.0 | 2.0 | 0.04 | 0.04 | 0.04 | 96 | 1014.7 |
| 20260510035003 | 40 | 0 | 0.0 | 2.0 | 0.02 | 0.02 | 0.02 | 95 | 1014.8 |
| 20260510034003 | 40 | 0 | 0.0 | 4.0 | 0.02 | 0.02 | 0.02 | 95 | 1014.6 |
| 20260510033003 | 40 | 88 | 1.0 | 4.0 | 0.01 | 0.01 | 0.01 | 95 | 1014.7 |
| 20260510032003 | 40 | 67 | 1.0 | 2.0 | 0.01 | 0.01 | 0.01 | 96 | 1015.0 |
| 20260510031003 | 40 | 0 | 0.0 | 0.0 | 0.01 | 0.01 | 0.01 | 95 | 1015.2 |
| 20260510030003 | 40 | 0 | 0.0 | 2.0 | 0.00 | 0.00 | 0.00 | 95 | 1015.1 |
| 20260510025003 | 40 | 0 | 0.0 | 4.0 | 0.00 | 0.00 | 0.00 | 94 | 1015.1 |
| 20260510024003 | 40 | 78 | 2.0 | 4.0 | 0.00 | 0.00 | 0.00 | 94 | 1015.2 |
| 20260510023003 | 40 | 66 | 2.0 | 4.0 | 0.00 | 0.00 | 0.00 | 94 | 1015.5 |
| 20260510022003 | 41 | 69 | 2.0 | 6.0 | 0.00 | 0.00 | 0.00 | 93 | 1015.5 |
| 20260510021003 | 41 | 42 | 2.0 | 4.0 | 0.00 | 0.00 | 0.00 | 91 | 1015.6 |
| 20260510020003 | 41 | 56 | 1.0 | 2.0 | 0.00 | 0.00 | 0.00 | 89 | 1015.8 |
| 20260510015003 | 41 | 67 | 1.0 | 2.0 | 0.00 | 0.00 | 0.00 | 89 | 1015.8 |
| 20260510014003 | 42 | 39 | 1.0 | 4.0 | 0.00 | 0.00 | 0.00 | 87 | 1015.9 |
| 20260510013003 | 42 | 23 | 2.0 | 4.0 | 0.00 | 0.00 | 0.00 | 85 | 1015.7 |
| 20260510012003 | 42 | 2 | 1.0 | 2.0 | 0.00 | 0.00 | 0.00 | 82 | 1016.0 |
| 20260510011003 | 42 | 0 | 0.0 | 2.0 | 0.00 | 0.00 | 0.00 | 82 | 1016.1 |
| 20260510010003 | 42 | 335 | 1.0 | 2.0 | 0.00 | 0.00 | 0.00 | 82 | 1016.3 |
| 20260510005003 | 42 | 0 | 0.0 | 2.0 | 0.00 | 0.00 | 0.00 | 82 | 1016.3 |
| 20260510004003 | 42 | 0 | 0.0 | 2.0 | 0.00 | 0.00 | 0.00 | 82 | 1016.3 |
| 20260510003004 | 42 | 0 | 0.0 | 2.0 | 0.00 | 0.00 | 0.00 | 81 | 1016.3 |
| 20260510002008 | 41 | 0 | 0.0 | 0.0 | 0.00 | 0.00 | 0.00 | 82 | 1016.4 |
| 20260510001003 | 41 | 0 | 0.0 | 0.0 | 0.00 | 0.00 | 0.00 | 83 | 1016.3 |
| 20260510000003 | 41 | 0 | 0.0 | 0.0 | 0.00 | 0.00 | 0.00 | 82 | 1016.8 |
| 20260509235003 | 40 | 0 | 0.0 | 0.0 | 0.00 | 0.00 | 0.00 | 83 | 1016.7 |